Location: Baumgarten
(49.0970°N, 12.7493°E)
Time: 08:24:16
(UTC+00:00)

Cosmos 1151 Rocket - Pass Details

Date: 05 July 2020
Orbit: 591 x 617 km, 82.5° (Epoch: 04 August)

Event Time Altitude Azimuth Distance (km) Brightness Sun altitude
Rises 21:54:49 0° 357° (N) 2,882 8.0 -16.1°
Reaches altitude 10° 21:57:14 10° 7° (N) 1,969 6.7 -16.2°
Maximum altitude 22:01:12 33° 72° (ENE) 1,016 4.1 -16.4°
Enters shadow 22:03:12 22° 120° (ESE) 1,324 4.3 -16.5°
